Location: Elstree
(51.6403°N, 0.2969°W)
Time: 00:41:07
(UTC+00:00)

Terra - Visible Passes

Search period start: 17 June 2021 00:00
Search period end: 27 June 2021 00:00
Orbit: 701 x 703 km, 98.2° (Epoch: 16 June)

Date Brightness Start Highest point End Pass type
(mag) Time Alt. Az. Time Alt. Az. Time Alt. Az.
17 Jun 1.9 21:49:22 11° SSE 21:53:59 80° WSW 21:58:47 10° NNW visible
17 Jun 4.2 23:30:39 10° WSW 23:32:32 12° W 23:34:26 10° WNW visible
18 Jun 3.0 22:32:37 10° SSW 22:36:55 35° W 22:41:17 10° NNW visible
19 Jun 1.9 21:36:59 10° SSE 21:41:44 82° ENE 21:46:32 10° NNW visible
19 Jun 4.1 23:17:16 10° SW 23:20:07 16° W 23:22:58 10° NW visible
20 Jun 2.7 22:20:12 11° S 22:24:36 44° W 22:29:10 10° NNW visible
21 Jun 2.0 21:24:48 10° SSE 21:29:30 65° ENE 21:34:15 10° N visible
21 Jun 3.8 23:04:15 10° SW 23:07:42 20° W 23:11:11 10° NW visible
22 Jun 2.3 22:07:48 11° S 22:12:17 56° W 22:17:00 10° NNW visible
23 Jun 2.3 21:12:42 10° SE 21:17:18 51° ENE 21:21:56 10° N visible
23 Jun 3.5 22:51:26 10° SSW 22:55:19 25° W 22:59:14 10° NW visible
24 Jun 2.0 21:55:24 11° S 22:00:00 71° WSW 22:04:47 10° NNW visible
24 Jun 4.4 23:37:36 10° W 23:38:38 11° W 23:39:42 10° WNW visible
25 Jun 3.2 22:38:45 10° SSW 22:42:58 31° W 22:47:12 10° NNW visible
26 Jun 1.9 21:43:01 10° SSE 21:47:44 89° WSW 21:52:33 10° NNW visible
26 Jun 4.2 23:23:46 10° WSW 23:26:12 14° W 23:28:38 10° NW visible
